Regional Weather Roundup
Issued by NWS

Home | Current Version | Previous Version | Graphics & Text | Print | Product List | Glossary Off
Versions: 1 2 3 4 5 6 7 8 9 10 11 12 13 14 15 16 17 18 19 20 21 22 23 24 25 26 27 28 29 30 31 32 33 34 35 36 37 38 39 40 41 42 43 44 45 46 47 48 49 50

000
ASUS44 KMEG 250210
RWRTN
TENNESSEE HOURLY STATE WEATHER ROUNDUP
NATIONAL WEATHER SERVICE MEMPHIS TN
900 PM CDT SAT JUN 24 2017

TNZ002-004-019-021-049-052-054-088>092-250300-
WEST TENNESSEE

CITY           SKY/WX    TMP DP  RH WIND       PRES   REMARKS
MEMPHIS INTL   MOCLDY    74  60  61 N6        30.13R
NWS MEMPHIS      N/A     71 N/A N/A MISG        N/A
JACKSON        PTCLDY    73  62  68 N5        30.14R
SOMERVILLE     CLEAR     70  64  83 CALM      30.13R
COVINGTON      CLEAR     72  66  83 CALM      30.14R
UNION CITY     CLEAR     70  55  60 N3        30.14R
BOLIVAR        CLEAR     68  64  88 CALM      30.13R
PARIS          CLEAR     68  59  73 N3        30.15R
HUNTINGDON     CLEAR     70  57  64 N3        30.14R
LEXINGTON      CLEAR     68  61  77 N3        30.12S
SELMER         CLEAR     68  66  94 CALM      30.12S
SAVANNAH       CLEAR     68  66  94 CALM      30.11S
$$

TNZ008-025-027-028-033-062-065-066-250300-
NORTH MIDDLE TENNESSEE

CITY           SKY/WX    TMP DP  RH WIND       PRES   REMARKS
NASHVILLE      MOCLDY    77  58  51 N10       30.12R
PORTLAND       CLEAR     70  59  68 CALM      30.13R
CLARKSVILLE    MOCLDY    68  54  60 N8        30.14R
SMYRNA         MOCLDY    72  62  71 NW3       30.13R
COOKEVILLE     CLEAR     70  61  73 CALM      30.12R
GALLATIN       CLEAR     72  59  64 NW6       30.14R
CROSSVILLE     PTCLDY    68  58  70 NW5       30.15R
$$

TNZ061-075-076-078-094-096-097-250300-
SOUTH MIDDLE TENNESSEE

CITY           SKY/WX    TMP DP  RH WIND       PRES   REMARKS
FAYETTEVILLE   CLEAR     72  61  68 N3        30.11S
TULLAHOMA      CLEAR     70  57  64 N5        30.14R
WINCHESTER     CLEAR     72  61  68 N6          N/A
MCMINNVILLE    CLEAR     70  63  78 N3        30.13R
COLUMBIA       CLEAR     72  63  73 CALM      30.11R
SHELBYVILLE    CLEAR     70  61  73 N3        30.12R
$$

TNZ017-018-042-046-047-250300-
NORTHEAST TENNESSEE

CITY           SKY/WX    TMP DP  RH WIND       PRES   REMARKS
TRI CITIES     PTCLDY    73  59  61 NW5       30.08R
ELIZABETHTON   CLOUDY    66  64  94 CALM      30.08R
$$

TNZ012-013-036-069-073-074-250300-
CENTRAL EAST TENNESSEE

CITY           SKY/WX    TMP DP  RH WIND       PRES   REMARKS
KNOXVILLE      MOCLDY    75  61  61 W6        30.07R
OAK RIDGE      PTCLDY    74  58  57 NW3       30.10R
DOWNTOWN KNOXV CLEAR     75  64  69 CALM      30.07R
GATLINBURG     CLOUDY    72  63  73 CALM      30.07R
MORRISTOWN     PTCLDY    70  64  83 VRB3      30.08R
JACKSBORO        N/A     73  59  60 VRB5      30.14R
$$

TNZ083-085-099-250300-
SOUTHEAST TENNESSEE

CITY           SKY/WX    TMP DP  RH WIND       PRES   REMARKS
CHATTANOOGA    PTCLDY    74  64  71 NW6       30.09R
$$

SKY/WX REPORTED AS FAIR MEANS FEW OR NO CLOUDS BELOW
12 THOUSAND FEET.





USA.gov is the U.S. government's official web portal to all federal, state and local government web resources and services.